Location: Unspecified
(47.2657°N, 0.0000°E)
Time: 18:21:04
(UTC+00:00)

CZ-6A DEB - Visible Passes

Search period start: 04 April 2026 00:00
Search period end: 14 April 2026 00:00
Orbit: 804 x 928 km, 98.9° (Epoch: 28 March)

Date Brightness Start Highest point End Pass type
(mag) Time Alt. Az. Time Alt. Az. Time Alt. Az.
4 Apr ? 04:51:10 10° NNE 04:56:51 58° E 05:02:17 10° S visible
5 Apr ? 04:43:55 10° NNE 04:49:30 50° E 04:54:51 10° S visible
6 Apr ? 04:36:41 10° NNE 04:42:08 44° E 04:47:22 10° S visible
7 Apr ? 04:29:27 10° NNE 04:34:45 38° E 04:39:51 10° SSE visible
8 Apr ? 04:22:15 10° NNE 04:27:21 34° E 04:32:17 10° SSE visible
9 Apr ? 04:15:03 10° NE 04:19:57 29° E 04:24:40 10° SSE visible
10 Apr ? 04:07:53 10° NE 04:12:32 26° E 04:17:01 10° SSE visible
11 Apr ? 04:00:46 10° NE 04:05:05 22° E 04:09:18 10° SE visible
12 Apr ? 03:53:41 10° NE 03:57:39 19° E 04:01:30 10° SE visible
13 Apr ? 03:46:41 10° NE 03:50:11 17° E 03:53:37 10° SE visible
